[[{"header":{"parameterUnit":"m.s-1","parameterCategory":1,"la1":30.2991,"la2":30.254,"lo1":-89.0895,"lo2":-89.0444,"dy":0.0017,"dx":0.0017,"nx":28,"ny":28,"refTime":"2025-06-02T09:00:00:Z","depth":0,"parameterNumber":2,"parameterNumberName":"U-component_of_WINDS"},"data":[0,0,0,0,0,0,0,0,0,0,0,0,0,0,0,0,0,0,0,0,0,0,0,0,0,0,0,0,0,0,0,0,0,0,0,0,0,0,0,0,0,0,0,0,0,0,0,0,0,0,0,0,0,0,0,0,0,0,-5.9367,-5.9367,0,-5.9349,-5.9349,-5.9349,-5.9213,-5.921,-5.9206,-5.9203,-5.9185,-5.9188,-5.919,0,0,0,0,0,0,0,0,0,0,0,0,0,-5.9286,-5.9288,-5.9367,-5.9367,-5.9367,-5.9349,-5.9349,-5.9349,-5.9214,-5.9209,-5.9205,-5.9202,-5.9184,-5.9187,-5.919,0,0,0,0,0,0,0,0,0,0,0,0,0,-5.93,-5.9289,-5.9367,-5.9297,-5.9291,-5.9349,-5.9349,-5.9348,-5.9214,-5.9209,-5.9204,-5.92,-5.9183,-5.9187,-5.9191,-5.9315,0,0,-5.9203,-5.9205,0,0,0,0,0,0,0,0,-5.9299,-5.9303,-5.9308,-5.9302,-5.9295,-5.9278,-5.9313,-5.9337,-5.9216,-5.9243,-5.9203,-5.9197,-5.922,-5.9221,-5.9228,-5.9314,-5.9314,-5.9203,-5.9206,-5.9207,-5.9208,0,0,0,0,0,0,0,-5.9298,-5.9303,-5.936,-5.9308,-5.93,-5.9267,-5.9263,-5.9317,-5.926,-5.9241,-5.9231,-5.923,-5.9216,-5.9225,-5.9227,-5.9313,-5.9203,-5.9207,-5.9209,-5.9211,-5.9501,-5.9506,0,0,0,0,0,0,-5.9307,-5.9303,-5.936,-5.9359,-5.9285,-5.9273,-5.9269,-5.9289,-5.9259,-5.925,-5.9235,-5.9224,-5.9221,-5.9222,-5.9226,-5.9369,-5.9207,-5.9211,-5.9213,-5.9495,-5.9502,-5.9508,0,0,0,0,0,0,-5.9306,-5.9314,-5.9361,-5.9329,-5.9332,-5.9279,-5.9303,-5.9291,-5.93,-5.9255,-5.9244,-5.9254,-5.9217,-5.922,-5.9294,-5.9366,-5.9213,-5.9216,-5.9489,-5.9497,-5.9505,-5.9657,0,0,0,0,0,0,-5.9304,-5.9314,-5.936,-5.9331,-5.9334,-5.943,-5.9307,-5.9294,-5.9307,-5.9293,-5.927,-5.9262,-5.9213,-5.9289,-5.9298,-5.9369,-5.9219,-5.9482,-5.9493,-5.9502,-5.9645,-5.9669,-5.9689,0,0,0,0,0,-5.9302,-5.9404,-5.9363,-5.9371,-5.9391,-5.9434,-5.9436,-5.9378,-5.9313,-5.9359,-5.9331,-5.9262,-5.9358,-5.9298,-5.9307,-5.938,-5.9477,-5.949,-5.9502,-5.9635,-5.9664,-5.9689,0,0,0,0,0,0,-5.9443,-5.9398,-5.9353,-5.9448,-5.9446,-5.9411,-5.9467,-5.9411,-5.9427,-5.9413,-5.9341,-5.9337,-5.9422,-5.9408,-5.9342,-5.9499,-5.9406,-5.942,-5.9504,-5.9531,-5.9553,-5.9554,-5.9223,0,0,0,0,0,-5.9485,-5.9524,-5.9483,-5.9571,-5.9572,-5.9521,-5.9537,-5.9493,-5.9488,-5.9486,-5.9462,-5.946,-5.9489,-5.951,-5.9534,-5.9643,-5.9636,-5.9698,-5.972,-5.9739,-5.9752,-5.9808,-5.9835,-5.9547,-5.9547,-5.9547,0,0,-5.9572,-5.9553,-5.9582,-5.9599,-5.9592,-5.9633,-5.9521,-5.9569,-5.9599,-5.9493,-5.9561,-5.9544,-5.9537,-5.9629,-5.9668,-5.962,-5.983,-5.9754,-5.9769,-5.9772,-5.9823,-5.9851,-5.9875,-5.9555,-5.9554,-5.9553,0,0,-5.9752,-5.9742,-5.9814,-5.981,-5.9801,-5.9766,-5.9784,-5.9758,-5.9743,-5.981,-5.9731,-5.9767,-5.9819,-5.9817,-5.9823,-6.0005,-5.9943,-6.0015,-6.013,-6.0187,-6.0209,-6.0229,-6.0293,-6.0317,-6.0028,-6.0029,-6.0029,0,-5.9862,-5.9921,-5.9859,-5.9913,-5.9923,-5.9829,-5.9902,-5.9901,-5.9901,-5.991,-5.9857,-5.992,-5.9909,-5.9999,-6.0044,-6.0052,-6.007,-6.0016,-6.0211,-6.023,-6.0248,-6.0308,-6.0333,-6.0038,-6.0037,-6.0036,-6.0035,0,-6.0056,-6.0099,-6.0159,-6.0161,-6.0178,-6.0241,-6.0188,-6.0213,-6.0168,-6.014,-6.021,-6.0193,-6.0213,-6.0231,-6.0188,-6.0316,-6.0286,-6.0224,-6.0128,-6.0285,-6.034,-6.0363,-6.005,-6.0047,-6.0044,-6.0042,0,0,-6.0322,-6.029,-6.0313,-6.0313,-6.0298,-6.0329,-6.039,-6.0409,-6.0431,-6.0435,-6.0483,-6.053,-6.0472,-6.0479,-6.0435,-6.0485,-6.063,-6.0415,-6.0414,-6.0455,-6.0769,-6.0816,-6.0844,-6.0589,-6.0593,-6.0597,-6.077,0,-6.0494,-6.0594,-6.054,-6.0647,-6.0685,-6.0598,-6.065,-6.0647,-6.0623,-6.0652,-6.0625,-6.0659,-6.058,-6.0584,-6.0629,-6.0602,-6.0691,-6.0589,-6.0633,-6.0635,-6.0635,-6.0873,-6.0921,-6.1085,-6.0791,-6.0795,-6.0797,0,-6.0708,-6.0721,-6.0832,-6.081,-6.0824,-6.0872,-6.0885,-6.0915,-6.091,-6.0888,-6.0898,-6.0842,-6.0899,-6.0807,-6.0885,-6.0817,-6.0832,-6.0822,-6.0827,-6.0827,-6.0724,-6.0878,-6.1136,-6.1161,-6.0831,-6.0828,-6.0826,0,-6.0889,-6.0935,-6.1007,-6.101,-6.0987,-6.1022,-6.1014,-6.1004,-6.1019,-6.1032,-6.1041,-6.1061,-6.1071,-6.1088,-6.1039,-6.0977,-6.1124,-6.1028,-6.1108,-6.1109,-6.1141,-6.1139,-6.1404,-6.1154,-6.1154,-6.1153,-6.1153,0,-6.1086,-6.1157,-6.1089,-6.1133,-6.121,-6.1149,-6.1227,-6.1209,-6.1202,-6.1241,-6.1168,-6.1207,-6.1141,-6.1174,-6.1136,-6.1207,-6.1212,-6.1197,-6.1186,-6.1202,-6.1204,-6.121,-6.1197,-6.116,-6.1158,-6.1157,-6.1156,0,-6.1301,-6.1258,-6.1331,-6.1303,-6.1298,-6.1356,-6.1332,-6.1372,-6.1344,-6.1395,-6.1404,-6.1359,-6.1394,-6.1347,-6.1378,-6.1352,-6.1449,-6.1421,-6.145,-6.1442,-6.1524,-6.1517,-6.18,-6.1834,-6.1564,-6.1567,-6.1569,0,-6.1428,-6.1481,-6.1459,-6.1481,-6.1477,-6.1512,-6.1528,-6.147,-6.1489,-6.1488,-6.1529,-6.1558,-6.1577,-6.1637,-6.1607,-6.163,-6.1602,-6.17,-6.1605,-6.162,-6.1602,-6.1599,-6.1604,-6.1719,-6.1722,-6.1725,-6.1727,0,-6.1659,-6.1635,-6.166,-6.1679,-6.17,-6.1712,-6.1718,-6.174,-6.168,-6.1705,-6.174,-6.1755,-6.1787,-6.1816,-6.1832,-6.1823,-6.1766,-6.1757,-6.1777,-6.1793,-6.1808,-6.18,-6.1502,-6.175,-6.1748,-6.1746,-6.1745,-6.1744,-6.1832,-6.1875,-6.1867,-6.1898,-6.1897,-6.1905,-6.1941,-6.1918,-6.1946,-6.1967,-6.1931,-6.1976,-6.197,-6.1985,-6.1984,-6.2017,-6.1975,-6.2004,-6.201,-6.2018,-6.203,-6.1804,-6.202,-6.2019,-6.2019,-6.2018,-6.2018,0,-6.2058,-6.2049,-6.2078,-6.209,-6.2114,-6.2059,-6.2063,-6.2088,-6.2127,-6.2127,-6.2148,-6.2189,-6.2218,-6.2192,-6.2215,-6.2247,-6.2221,-6.2255,-6.2251,-6.225,-6.2067,-6.2047,-6.2276,-6.2276,-6.2276,-6.2276,-6.2276,-6.2276,-6.2178,-6.2248,-6.2224,-6.2293,-6.2283,-6.2325,-6.2333,-6.234,-6.234,-6.2388,-6.2412,-6.2395,-6.2384,-6.2407,-6.2431,-6.2422,-6.2434,-6.2477,-6.246,-6.2289,-6.2263,-6.2239,-6.222,-6.2481,-6.2481,-6.2639,-6.2641,-6.2642]},{"header":{"parameterUnit":"m.s-1","parameterCategory":1,"la1":30.2991,"la2":30.254,"lo1":-89.0895,"lo2":-89.0444,"dy":0.0017,"dx":0.0017,"nx":28,"ny":28,"refTime":"2025-06-02T09:00:00:Z","depth":0,"parameterNumber":3,"parameterNumberName":"V-component_of_WINDS"},"data":[0,0,0,0,0,0,0,0,0,0,0,0,0,0,0,0,0,0,0,0,0,0,0,0,0,0,0,0,0,0,0,0,0,0,0,0,0,0,0,0,0,0,0,0,0,0,0,0,0,0,0,0,0,0,0,0,0,0,2.1416,2.1416,0,2.1429,2.1429,2.143,2.148,2.1481,2.1482,2.1483,2.1491,2.149,2.1489,0,0,0,0,0,0,0,0,0,0,0,0,0,2.1431,2.143,2.1416,2.1416,2.1417,2.1429,2.1429,2.143,2.1479,2.1481,2.1482,2.1484,2.1491,2.149,2.1489,0,0,0,0,0,0,0,0,0,0,0,0,0,2.1432,2.143,2.1416,2.1443,2.1446,2.1429,2.1429,2.143,2.1479,2.1481,2.1483,2.1484,2.1491,2.149,2.1489,2.1446,0,0,2.1485,2.1484,0,0,0,0,0,0,0,0,2.1432,2.1431,2.1439,2.1441,2.1444,2.1455,2.1438,2.1435,2.1479,2.1466,2.1483,2.1485,2.1477,2.1477,2.1475,2.1446,2.1446,2.1485,2.1484,2.1483,2.1483,0,0,0,0,0,0,0,2.1432,2.1431,2.1421,2.1439,2.1442,2.1453,2.1455,2.1437,2.1461,2.1467,2.1471,2.1472,2.1479,2.1477,2.1476,2.1447,2.1485,2.1484,2.1483,2.1482,2.1383,2.1382,0,0,0,0,0,0,2.1429,2.1431,2.1421,2.1422,2.1442,2.1452,2.1454,2.1449,2.1462,2.1466,2.1471,2.1475,2.1478,2.1477,2.1476,2.1427,2.1483,2.1482,2.1481,2.1385,2.1383,2.1381,0,0,0,0,0,0,2.1429,2.1427,2.142,2.1427,2.1427,2.145,2.1444,2.1449,2.1447,2.1465,2.1469,2.1464,2.1479,2.1478,2.1454,2.1428,2.1481,2.148,2.1387,2.1384,2.1382,2.1327,0,0,0,0,0,0,2.1429,2.1427,2.1411,2.1427,2.1427,2.1398,2.1443,2.1448,2.1445,2.145,2.146,2.1463,2.1481,2.1455,2.1452,2.1427,2.1479,2.139,2.1386,2.1383,2.1331,2.1323,2.1316,0,0,0,0,0,2.1429,2.1394,2.141,2.1409,2.1408,2.1397,2.1396,2.1419,2.1443,2.1427,2.1439,2.1462,2.1432,2.1452,2.1449,2.1423,2.1391,2.1387,2.1383,2.1335,2.1324,2.1316,0,0,0,0,0,0,2.1373,2.1396,2.1415,2.1384,2.1388,2.1405,2.1385,2.1408,2.1404,2.1408,2.1436,2.1437,2.1408,2.1414,2.1436,2.1383,2.1416,2.1411,2.138,2.137,2.1363,2.1361,2.1478,0,0,0,0,0,2.1357,2.1347,2.1368,2.1339,2.134,2.1363,2.1358,2.1376,2.1381,2.1382,2.1392,2.1394,2.1385,2.1378,2.1371,2.1333,2.1335,2.1314,2.1306,2.13,2.1294,2.1275,2.1265,2.1367,2.1367,2.1367,0,0,2.1324,2.1336,2.1327,2.1328,2.1333,2.1321,2.1363,2.1349,2.1339,2.1379,2.1357,2.1364,2.1369,2.1337,2.1324,2.1341,2.1267,2.1294,2.1289,2.1287,2.1269,2.126,2.1251,2.1365,2.1365,2.1365,0,0,2.1257,2.1265,2.1242,2.1247,2.1256,2.1271,2.1266,2.128,2.1287,2.1266,2.1296,2.1285,2.1269,2.1271,2.127,2.1206,2.1228,2.1203,2.1161,2.1142,2.1134,2.1127,2.1103,2.1095,2.1198,2.1198,2.1198,0,2.1213,2.1198,2.1227,2.121,2.1209,2.1248,2.1224,2.1227,2.1232,2.123,2.125,2.1231,2.1237,2.1207,2.1191,2.119,2.1183,2.1201,2.1133,2.1126,2.112,2.1098,2.1089,2.1195,2.1195,2.1196,2.1196,0,2.1144,2.1133,2.1113,2.1119,2.1116,2.1096,2.1121,2.1114,2.1133,2.1146,2.1124,2.1133,2.1128,2.1123,2.114,2.1095,2.1105,2.1129,2.1162,2.1107,2.1086,2.1078,2.119,2.1192,2.1193,2.1193,0,0,2.1039,2.1064,2.1055,2.1059,2.1073,2.1064,2.1046,2.1044,2.1037,2.104,2.1024,2.1011,2.1034,2.1032,2.105,2.1034,2.0982,2.1059,2.106,2.1043,2.0933,2.0914,2.0904,2.0998,2.0996,2.0995,2.0932,0,2.0974,2.0946,2.0972,2.0938,2.0928,2.0966,2.095,2.0956,2.0968,2.096,2.0974,2.0964,2.0994,2.0994,2.0979,2.0992,2.096,2.0997,2.0982,2.0981,2.0978,2.0893,2.0873,2.0813,2.0925,2.0923,2.0922,0,2.0895,2.0896,2.0861,2.0879,2.0875,2.0861,2.0861,2.0854,2.0862,2.0872,2.0872,2.0895,2.0877,2.0912,2.0888,2.0912,2.0908,2.0913,2.0912,2.0909,2.0947,2.0887,2.0795,2.0785,2.091,2.0911,2.0912,0,2.082,2.0814,2.0792,2.0794,2.0814,2.0803,2.081,2.082,2.0817,2.0818,2.0816,2.0813,2.0811,2.0809,2.083,2.0854,2.0803,2.0839,2.0809,2.0809,2.0795,2.0795,2.0698,2.0795,2.0795,2.0795,2.0796,0,2.0744,2.0721,2.0759,2.0746,2.0721,2.0752,2.0726,2.0737,2.0746,2.0735,2.0767,2.0755,2.0786,2.0777,2.0794,2.0771,2.077,2.0777,2.0781,2.0773,2.0772,2.0769,2.0773,2.0793,2.0794,2.0794,2.0794,0,2.0656,2.0681,2.066,2.0681,2.0686,2.0667,2.0685,2.0673,2.0689,2.0674,2.0672,2.0696,2.0688,2.071,2.0704,2.0716,2.0682,2.0694,2.068,2.0683,2.0651,2.0654,2.0548,2.0535,2.0641,2.064,2.0639,0,2.0605,2.0589,2.0609,2.0605,2.0611,2.0604,2.0602,2.0632,2.0628,2.0637,2.0624,2.0619,2.0616,2.0601,2.0617,2.0613,2.0624,2.0587,2.0623,2.0615,2.0622,2.0622,2.062,2.0579,2.0577,2.0576,2.0576,0,2.0512,2.0525,2.0523,2.0524,2.0522,2.0524,2.0528,2.0523,2.0555,2.0549,2.0542,2.0541,2.0536,2.053,2.053,2.0537,2.0561,2.0565,2.0558,2.0548,2.054,2.0543,2.0658,2.0566,2.0567,2.0568,2.0568,2.0569,2.044,2.0427,2.044,2.0436,2.0443,2.0447,2.0437,2.0453,2.0448,2.0448,2.0466,2.0456,2.0465,2.0468,2.0472,2.0463,2.0479,2.0469,2.0466,2.0463,2.0457,2.0543,2.0463,2.0463,2.0464,2.0464,2.0464,0,2.0347,2.0358,2.0355,2.0361,2.0358,2.0384,2.0391,2.0385,2.0376,2.0384,2.0381,2.0373,2.0368,2.0385,2.0382,2.0372,2.0383,2.037,2.037,2.0371,2.0443,2.0449,2.0361,2.0361,2.0361,2.0361,2.0361,2.0361,2.0299,2.0279,2.0294,2.0278,2.0289,2.0281,2.0282,2.0286,2.0292,2.0282,2.0279,2.0291,2.0302,2.0301,2.0297,2.0302,2.0299,2.0282,2.029,2.0356,2.0366,2.0376,2.0381,2.0281,2.0281,2.0219,2.0219,2.0218]}]]